TimeCST,TemperatureF,Dew PointF,Humidity,Sea Level PressureIn,VisibilityMPH,Wind Direction,Wind SpeedMPH,Gust SpeedMPH,PrecipitationIn,Events,Conditions,WindDirDegrees,DateUTC
12:15 AM,30.2,23.0,75,30.19,10.0,SSW,11.5,-,0.00,,Clear,210,2013-11-13 06:15:00
12:35 AM,30.2,23.0,75,30.17,10.0,SSW,15.0,-,0.00,,Clear,210,2013-11-13 06:35:00
12:55 AM,32.0,23.0,69,30.16,10.0,SSW,17.3,-,0.00,,Clear,210,2013-11-13 06:55:00
1:15 AM,32.0,24.8,75,30.15,10.0,SSW,13.8,-,0.00,,Clear,210,2013-11-13 07:15:00
1:35 AM,32.0,24.8,75,30.13,10.0,SW,18.4,-,0.00,,Clear,220,2013-11-13 07:35:00
1:55 AM,32.0,26.6,80,30.12,10.0,SW,18.4,27.6,0.00,,Clear,220,2013-11-13 07:55:00
2:15 AM,32.0,26.6,80,30.12,10.0,SW,19.6,-,0.00,,Clear,220,2013-11-13 08:15:00
2:35 AM,32.0,26.6,80,30.10,10.0,SW,21.9,25.3,0.00,,Clear,220,2013-11-13 08:35:00
2:55 AM,32.0,26.6,80,30.09,10.0,SW,19.6,26.5,0.00,,Clear,220,2013-11-13 08:55:00
3:15 AM,32.0,26.6,80,30.07,10.0,SW,19.6,25.3,0.00,,Clear,220,2013-11-13 09:15:00
3:35 AM,32.0,28.4,87,30.07,10.0,SW,18.4,25.3,0.00,,Clear,230,2013-11-13 09:35:00
3:55 AM,32.0,26.6,80,30.05,10.0,SW,19.6,-,0.00,,Clear,220,2013-11-13 09:55:00
4:15 AM,32.0,26.6,80,30.04,10.0,SW,21.9,26.5,0.00,,Clear,220,2013-11-13 10:15:00
4:35 AM,30.2,28.4,93,30.03,10.0,SW,21.9,-,0.00,,Clear,220,2013-11-13 10:35:00
4:55 AM,32.0,28.4,87,30.02,10.0,SW,20.7,-,0.00,,Clear,220,2013-11-13 10:55:00
5:15 AM,32.0,28.4,87,30.01,10.0,SW,19.6,-,0.00,,Clear,220,2013-11-13 11:15:00
5:35 AM,32.0,28.4,87,30.01,10.0,SW,17.3,-,0.00,,Clear,220,2013-11-13 11:35:00
5:55 AM,30.2,28.4,93,29.99,10.0,SW,20.7,-,0.00,,Clear,220,2013-11-13 11:55:00
6:15 AM,32.0,28.4,87,29.98,10.0,SW,21.9,27.6,0.00,,Clear,220,2013-11-13 12:15:00
6:35 AM,32.0,28.4,87,29.98,10.0,SW,18.4,24.2,0.00,,Clear,230,2013-11-13 12:35:00
6:55 AM,30.2,28.4,93,29.97,10.0,SW,20.7,25.3,0.00,,Clear,220,2013-11-13 12:55:00
7:15 AM,30.2,28.4,93,29.97,10.0,SW,20.7,26.5,0.00,,Clear,220,2013-11-13 13:15:00
7:35 AM,30.2,28.4,93,29.95,10.0,SW,24.2,27.6,0.00,,Clear,220,2013-11-13 13:35:00
7:55 AM,32.0,30.2,93,29.96,10.0,SW,25.3,29.9,0.00,,Clear,220,2013-11-13 13:55:00
8:15 AM,32.0,30.2,93,29.94,10.0,SW,21.9,29.9,0.00,,Clear,220,2013-11-13 14:15:00
8:35 AM,32.0,30.2,93,29.95,10.0,SW,17.3,-,0.00,,Clear,220,2013-11-13 14:35:00
8:55 AM,33.8,30.2,87,29.95,10.0,SW,18.4,-,0.00,,Clear,230,2013-11-13 14:55:00
9:15 AM,33.8,30.2,87,29.95,10.0,SW,20.7,28.8,0.00,,Clear,230,2013-11-13 15:15:00
9:35 AM,35.6,32.0,87,29.94,10.0,SW,18.4,23.0,0.00,,Clear,220,2013-11-13 15:35:00
9:55 AM,37.4,32.0,81,29.93,10.0,SW,19.6,24.2,0.00,,Clear,220,2013-11-13 15:55:00
10:15 AM,37.4,32.0,81,29.92,10.0,SW,19.6,24.2,0.00,,Clear,230,2013-11-13 16:15:00
10:35 AM,39.2,32.0,75,29.92,10.0,SW,21.9,26.5,0.00,,Clear,220,2013-11-13 16:35:00
10:55 AM,42.8,32.0,66,29.92,10.0,SW,21.9,-,0.00,,Clear,230,2013-11-13 16:55:00
11:15 AM,46.4,32.0,57,29.93,10.0,WSW,16.1,23.0,0.00,,Clear,240,2013-11-13 17:15:00
11:35 AM,48.2,32.0,54,29.92,10.0,SW,16.1,20.7,0.00,,Clear,230,2013-11-13 17:35:00
11:55 AM,48.2,32.0,54,29.90,10.0,SW,17.3,-,0.00,,Clear,230,2013-11-13 17:55:00
12:15 PM,51.8,33.8,50,29.90,10.0,WSW,17.3,-,0.00,,Clear,250,2013-11-13 18:15:00
12:35 PM,51.8,33.8,50,29.89,10.0,WSW,17.3,21.9,0.00,,Clear,240,2013-11-13 18:35:00
12:55 PM,50.0,33.8,54,29.88,10.0,WSW,16.1,-,0.00,,Clear,240,2013-11-13 18:55:00
1:15 PM,53.6,33.8,47,29.87,10.0,SW,16.1,-,0.00,,Clear,230,2013-11-13 19:15:00
1:35 PM,53.6,33.8,47,29.88,10.0,SW,15.0,-,0.00,,Clear,230,2013-11-13 19:35:00
1:55 PM,55.4,35.6,47,29.87,10.0,WSW,16.1,-,0.00,,Clear,240,2013-11-13 19:55:00
2:15 PM,57.2,35.6,44,29.86,10.0,WSW,16.1,-,0.00,,Clear,240,2013-11-13 20:15:00
2:35 PM,57.2,35.6,44,29.86,10.0,WSW,12.7,-,0.00,,Clear,240,2013-11-13 20:35:00
2:55 PM,57.2,37.4,48,29.86,10.0,WSW,18.4,21.9,0.00,,Clear,250,2013-11-13 20:55:00
3:15 PM,57.2,35.6,44,29.86,10.0,West,13.8,19.6,0.00,,Clear,270,2013-11-13 21:15:00
3:35 PM,55.4,33.8,44,29.87,10.0,West,13.8,-,0.00,,Clear,280,2013-11-13 21:35:00
3:55 PM,53.6,33.8,47,29.86,10.0,West,12.7,-,0.00,,Clear,270,2013-11-13 21:55:00
4:15 PM,51.8,33.8,50,29.87,10.0,West,8.1,-,0.00,,Clear,260,2013-11-13 22:15:00
4:35 PM,50.0,33.8,54,29.87,10.0,West,6.9,-,0.00,,Clear,260,2013-11-13 22:35:00
4:55 PM,46.4,33.8,62,29.87,10.0,West,9.2,-,0.00,,Clear,270,2013-11-13 22:55:00
5:15 PM,46.4,33.8,62,29.86,10.0,WNW,12.7,-,0.00,,Clear,290,2013-11-13 23:15:00
5:35 PM,46.4,33.8,62,29.86,10.0,West,8.1,-,0.00,,Clear,260,2013-11-13 23:35:00
5:55 PM,44.6,32.0,61,29.86,10.0,SW,5.8,-,0.00,,Clear,220,2013-11-13 23:55:00
6:15 PM,42.8,32.0,66,29.86,10.0,SSW,4.6,-,0.00,,Clear,200,2013-11-14 00:15:00
6:35 PM,44.6,33.8,66,29.87,10.0,West,5.8,-,0.00,,Clear,260,2013-11-14 00:35:00
6:55 PM,46.4,33.8,62,29.87,10.0,WSW,6.9,-,0.00,,Clear,250,2013-11-14 00:55:00
7:15 PM,46.4,33.8,62,29.87,10.0,SW,4.6,-,0.00,,Clear,220,2013-11-14 01:15:00
7:35 PM,44.6,33.8,66,29.88,10.0,SSW,6.9,-,0.00,,Clear,210,2013-11-14 01:35:00
7:55 PM,46.4,35.6,66,29.88,10.0,WSW,8.1,-,0.00,,Clear,250,2013-11-14 01:55:00
8:15 PM,46.4,35.6,66,29.88,10.0,WSW,6.9,-,0.00,,Clear,250,2013-11-14 02:15:00
8:35 PM,46.4,35.6,66,29.87,10.0,WSW,8.1,-,0.00,,Partly Cloudy,250,2013-11-14 02:35:00
8:55 PM,44.6,35.6,71,29.88,10.0,WSW,8.1,-,0.00,,Partly Cloudy,240,2013-11-14 02:55:00
9:15 PM,44.6,35.6,71,29.88,10.0,WSW,8.1,-,0.00,,Scattered Clouds,240,2013-11-14 03:15:00
9:35 PM,42.8,33.8,70,29.88,10.0,WSW,6.9,-,0.00,,Mostly Cloudy,250,2013-11-14 03:35:00
9:55 PM,42.8,33.8,70,29.88,10.0,West,5.8,-,0.00,,Overcast,260,2013-11-14 03:55:00
10:15 PM,42.8,33.8,70,29.88,10.0,West,9.2,-,0.00,,Mostly Cloudy,260,2013-11-14 04:15:00
10:35 PM,42.8,33.8,70,29.88,10.0,WSW,11.5,-,0.00,,Partly Cloudy,250,2013-11-14 04:35:00
10:55 PM,42.8,35.6,76,29.88,10.0,West,8.1,-,0.00,,Scattered Clouds,260,2013-11-14 04:55:00
11:15 PM,42.8,33.8,70,29.88,10.0,West,8.1,-,0.00,,Mostly Cloudy,260,2013-11-14 05:15:00
11:35 PM,41.0,33.8,76,29.88,10.0,WSW,9.2,-,0.00,,Mostly Cloudy,250,2013-11-14 05:35:00
11:55 PM,37.4,33.8,87,29.87,10.0,SW,9.2,-,0.00,,Partly Cloudy,230,2013-11-14 05:55:00